星链-3799 (STARLINK-3799 )

导读

STARLINK-3799是美国SpaceX星链星座的低轨宽带通信卫星,于2022年4月29日发射入轨。作为星链组网卫星之一,它为全球范围内高速低延迟卫星互联网服务提供支撑,可向偏远地区、移动载体提供宽带接入,助力构建空天地一体化网络,支撑家庭、漫游、海上等多场景的互联网接入需求,推进全球覆盖的卫星互联网部署进程。

基本信息
目录编号:
52382
目录名称:
STARLINK-3799
国际标识:
2022-045BD
轨道中心:
EARTH
卫星名称:
星链-3799
卫星全名:
星链-3799 (STARLINK-3799 )
卫星状态:
在轨 (已飞行1597 天)
发射日期:
2022-04-29 UTC
国别 :
美国 (US)
星等 :
--
该卫星已列入 空间交会检测服务 Space Conjunction Data Service (SCDS) ,当前飞行风险评估等级: 无高风险
轨道信息
数据来源 国际轨道数据
星历时间: 2026-09-12T08:00:02+0800
7小时前
查看轨道信息
半长轴: 6787.465km
偏心率: 0.0001664
轨道倾角: 53.211°
近地点辐角 53.107°
升交点赤经 45.446°
平近点角 261.076°
近地点: 408.198km
远地点: 410.458km
周期: 92.752分钟
每日圈数: 15.52535
详细信息
固有亮度:
5
最大亮度:
2.5
卫星平台:
Starlink v1.5
覆盖范围:
全球
运营商:
太空探索技术公司
运营商所在国:
美国
制造商(研发单位):
太空探索技术公司
制造商所在国:
美国
使用方式:
暂无
卫星简介
星链(Starlink)计划是由太空探索技术公司(SpaceX)提出的一个巨型低轨卫星互联网星座项目,计划在2019年至2024年间在太空搭建由约1.2万颗卫星组成的“星链”网络,其中1584颗将部署在地球上空550千米处的近地轨道,并从2020年开始工作。该卫星仍在工作。
2D轨道图
3D轨道图
轨道高度分析图
轨道倾角分析图
轨道综合分析图
查看轨道综合分析图
与全量物体交会距离演化趋势
与全量物体交会风险概率演化趋势